Weather History for Rutland, VT

Change the Weather History Date:

Monday, October 14, 2013

  Actual Average Record
Temperature  
Mean Temperature 52 °F -  
Max Temperature 61 °F - 80 °F (1954)
Min Temperature 43 °F - 20 °F (1993)
Degree Days  
Heating Degree Days 13    
Month to date heating degree days 143  
Since 1 July heating degree days 474  
Cooling Degree Days 0    
Month to date cooling degree days 0  
Year to date cooling degree days 449  
Growing Degree Days 1 (Base 50)    
Moisture  
Dew Point 48 °F    
Average Humidity 79    
Maximum Humidity 93    
Minimum Humidity 64    
Precipitation  
Precipitation 0.00 in - 0.72 in (1978)
Month to date precipitation 0.28  
Year to date precipitation 20.18  
Sea Level Pressure  
Sea Level Pressure 30.31 in    
Wind  
Wind Speed 4 mph (ESE)    
Max Wind Speed 12 mph    
Max Gust Speed -    
Visibility 10 miles    
Events      
T = Trace of Precipitation, MM = Missing Value Source: NWS Daily Summary

Daily Weather History Graph

Daily Weather History Graph

Search for Another Location

Airport:

Trip Planner

Search our weather history database for the weather conditions in past years. The results will help you decide how hot, cold, wet, or windy it might be!

Date:

Astronomy

Oct. 14, 2013 Rise Set
Actual Time 7:04 AM EDT 6:09 PM EDT
Civil Twilight 6:36 AM EDT 6:38 PM EDT
Nautical Twilight 6:02 AM EDT 7:11 PM EDT
Astronomical Twilight 5:29 AM EDT 7:44 PM EDT
Moon 3:44 PM EDT (10/14) 2:10 AM EDT (10/14)
Length of Visible Light 12h 02m
Length of Day
11h 04m
Waxing Gibbous, 79% of the Moon is Illuminated
Oct 14
Waxing Gibbous
Oct 18
Full
Oct 26
Last Quarter
Nov 3
New
Nov 10
First Quarter

Hourly Weather History & Observations

Time (EDT) Temp. Windchill Dew Point Humidity Pressure Visibility Wind Dir Wind Speed Gust Speed Precip Events Conditions
12:15 AM 48.2 °F - 44.6 °F 87% 30.36 in 10.0 mi SE 11.5 mph - N/A   Clear
12:35 AM 48.2 °F - 44.6 °F 87% 30.35 in 10.0 mi SE 11.5 mph - N/A   Clear
12:55 AM 48.2 °F - 44.6 °F 87% 30.36 in 10.0 mi SSE 8.1 mph - N/A   Clear
1:15 AM 48.2 °F - 44.6 °F 87% 30.35 in 10.0 mi SE 8.1 mph - N/A   Clear
1:35 AM 48.2 °F - 44.6 °F 87% 30.35 in 10.0 mi SE 9.2 mph - N/A   Partly Cloudy
1:55 AM 48.2 °F - 44.6 °F 87% 30.35 in 10.0 mi SE 9.2 mph - N/A   Partly Cloudy
2:15 AM 46.4 °F 41.1 °F 42.8 °F 87% 30.34 in 10.0 mi SE 11.5 mph - N/A   Clear
2:35 AM 46.4 °F 41.5 °F 42.8 °F 87% 30.34 in 10.0 mi SE 10.4 mph - N/A   Clear
2:55 AM 46.4 °F 44.3 °F 44.6 °F 93% 30.34 in 10.0 mi SE 4.6 mph - N/A   Clear
3:15 AM 44.6 °F 39.2 °F 42.8 °F 93% 30.34 in 10.0 mi SE 10.4 mph - N/A   Clear
3:35 AM 44.6 °F 39.2 °F 42.8 °F 93% 30.34 in 10.0 mi SE 10.4 mph - N/A   Clear
3:55 AM 46.4 °F 41.9 °F 42.8 °F 87% 30.34 in 10.0 mi SE 9.2 mph - N/A   Clear
4:15 AM 46.4 °F 40.7 °F 42.8 °F 87% 30.34 in 10.0 mi SE 12.7 mph - N/A   Clear
4:35 AM 44.6 °F 39.7 °F 42.8 °F 93% 30.34 in 10.0 mi SSE 9.2 mph - N/A   Clear
4:55 AM 44.6 °F 38.8 °F 42.8 °F 93% 30.34 in 10.0 mi SE 11.5 mph - N/A   Clear
5:15 AM 44.6 °F 38.8 °F 42.8 °F 93% 30.34 in 10.0 mi SE 11.5 mph - N/A   Clear
5:35 AM 44.6 °F 39.2 °F 42.8 °F 93% 30.34 in 10.0 mi SE 10.4 mph - N/A   Clear
5:55 AM 44.6 °F 39.7 °F 42.8 °F 93% 30.34 in 10.0 mi SE 9.2 mph - N/A   Clear
6:15 AM 42.8 °F 37.0 °F 42.8 °F 100% 30.34 in 10.0 mi SE 10.4 mph - N/A   Clear
6:35 AM 44.6 °F 40.2 °F 42.8 °F 93% 30.34 in 10.0 mi SE 8.1 mph - N/A   Clear
6:55 AM 44.6 °F 39.7 °F 42.8 °F 93% 30.34 in 10.0 mi SE 9.2 mph - N/A   Clear
7:15 AM 42.8 °F 37.5 °F 42.8 °F 100% 30.34 in 10.0 mi SE 9.2 mph - N/A   Scattered Clouds
7:35 AM 44.6 °F 39.7 °F 42.8 °F 93% 30.34 in 10.0 mi SE 9.2 mph - N/A   Overcast
7:55 AM 44.6 °F 39.7 °F 42.8 °F 93% 30.35 in 10.0 mi SE 9.2 mph - N/A   Overcast
8:15 AM 44.6 °F 40.7 °F 42.8 °F 93% 30.35 in 10.0 mi SE 6.9 mph - N/A   Overcast
8:35 AM 46.4 °F 43.5 °F 42.8 °F 87% 30.35 in 10.0 mi SE 5.8 mph - N/A   Overcast
8:55 AM 48.2 °F - 44.6 °F 87% 30.35 in 10.0 mi SE 4.6 mph - N/A   Overcast
9:15 AM 50.0 °F - 44.6 °F 82% 30.34 in 10.0 mi SSE 3.5 mph - N/A   Overcast
9:35 AM 50.0 °F - 44.6 °F 82% 30.34 in 10.0 mi South 3.5 mph - N/A   Overcast
9:55 AM 51.8 °F - 46.4 °F 82% 30.34 in 10.0 mi Calm Calm - N/A   Overcast
10:15 AM 53.6 °F - 46.4 °F 77% 30.33 in 10.0 mi Calm Calm - N/A   Overcast
10:35 AM 53.6 °F - 46.4 °F 77% 30.33 in 10.0 mi NNE 3.5 mph - N/A   Overcast
10:55 AM 55.4 °F - 46.4 °F 72% 30.33 in 10.0 mi Calm Calm - N/A   Overcast
11:15 AM 55.4 °F - 46.4 °F 72% 30.32 in 10.0 mi Calm Calm - N/A   Overcast
11:35 AM 55.4 °F - 46.4 °F 72% 30.32 in 10.0 mi Calm Calm - N/A   Overcast
11:55 AM 57.2 °F - 48.2 °F 72% 30.31 in 10.0 mi Calm Calm - N/A   Overcast
12:15 PM 57.2 °F - 48.2 °F 72% 30.30 in 10.0 mi Calm Calm - N/A   Overcast
12:35 PM 59.0 °F - 48.2 °F 67% 30.29 in 10.0 mi Calm Calm - N/A   Overcast
12:55 PM 60.8 °F - 48.2 °F 63% 30.28 in 10.0 mi Calm Calm - N/A   Overcast
1:15 PM 60.8 °F - 48.2 °F 63% 30.27 in 10.0 mi Calm Calm - N/A   Overcast
1:35 PM 60.8 °F - 48.2 °F 63% 30.27 in 10.0 mi North 5.8 mph - N/A   Overcast
1:55 PM 60.8 °F - 48.2 °F 63% 30.26 in 10.0 mi NNW 5.8 mph - N/A   Overcast
2:15 PM 60.8 °F - 48.2 °F 63% 30.26 in 10.0 mi North 8.1 mph - N/A   Overcast
2:35 PM 60.8 °F - 50.0 °F 68% 30.25 in 10.0 mi NNW 5.8 mph - N/A   Overcast
2:55 PM 60.8 °F - 51.8 °F 72% 30.25 in 10.0 mi NW 4.6 mph - N/A   Overcast
3:15 PM 60.8 °F - 50.0 °F 68% 30.25 in 10.0 mi NNW 5.8 mph - N/A   Overcast
3:35 PM 60.8 °F - 51.8 °F 72% 30.25 in 10.0 mi Calm Calm - N/A   Overcast
3:55 PM 60.8 °F - 50.0 °F 68% 30.25 in 10.0 mi North 3.5 mph - N/A   Overcast
4:15 PM 60.8 °F - 51.8 °F 72% 30.24 in 10.0 mi North 3.5 mph - N/A   Overcast
4:35 PM 60.8 °F - 51.8 °F 72% 30.25 in 10.0 mi North 5.8 mph - N/A   Overcast
4:55 PM 60.8 °F - 51.8 °F 72% 30.25 in 10.0 mi NNW 4.6 mph - N/A   Overcast
5:15 PM 60.8 °F - 51.8 °F 72% 30.25 in 10.0 mi North 5.8 mph - N/A   Overcast
5:35 PM 59.0 °F - 51.8 °F 77% 30.25 in 10.0 mi North 5.8 mph - N/A   Overcast
5:55 PM 57.2 °F - 51.8 °F 82% 30.27 in 10.0 mi Calm Calm - N/A   Overcast
6:15 PM 57.2 °F - 51.8 °F 82% 30.27 in 10.0 mi Calm Calm - N/A   Overcast
6:35 PM 57.2 °F - 51.8 °F 82% 30.28 in 10.0 mi Calm Calm - N/A   Overcast
6:55 PM 57.2 °F - 51.8 °F 82% 30.28 in 10.0 mi Calm Calm - N/A   Overcast
7:15 PM 57.2 °F - 51.8 °F 82% 30.28 in 10.0 mi Calm Calm - N/A   Overcast
7:35 PM 57.2 °F - 51.8 °F 82% 30.28 in 10.0 mi Calm Calm - N/A   Overcast
7:55 PM 57.2 °F - 53.6 °F 88% 30.28 in 10.0 mi Calm Calm - N/A   Overcast
8:15 PM 57.2 °F - 53.6 °F 88% 30.28 in 10.0 mi Calm Calm - N/A   Overcast
8:35 PM 57.2 °F - 53.6 °F 88% 30.28 in 10.0 mi Calm Calm - N/A   Overcast
8:55 PM 57.2 °F - 53.6 °F 88% 30.28 in 10.0 mi Calm Calm - N/A   Overcast
9:15 PM 55.4 °F - 53.6 °F 94% 30.29 in 10.0 mi Calm Calm - N/A   Overcast
9:35 PM 55.4 °F - 53.6 °F 94% 30.29 in 10.0 mi Calm Calm - N/A   Overcast
9:55 PM 55.4 °F - 53.6 °F 94% 30.29 in 10.0 mi Calm Calm - N/A   Overcast
10:15 PM 55.4 °F - 51.8 °F 88% 30.29 in 10.0 mi Calm Calm - N/A   Overcast
10:35 PM 57.2 °F - 51.8 °F 82% 30.29 in 10.0 mi Calm Calm - N/A   Overcast
10:55 PM 55.4 °F - 53.6 °F 94% 30.29 in 10.0 mi Calm Calm - N/A   Overcast
11:15 PM 55.4 °F - 53.6 °F 94% 30.28 in 10.0 mi Calm Calm - N/A   Overcast
11:35 PM 55.4 °F - 53.6 °F 94% 30.28 in 10.0 mi Calm Calm - N/A   Overcast
11:55 PM 55.4 °F - 53.6 °F 94% 30.27 in 10.0 mi Calm Calm - N/A   Overcast